[[{"header":{"parameterUnit":"m.s-1","parameterCategory":1,"la1":30.2991,"la2":30.254,"lo1":-89.0895,"lo2":-89.0444,"dy":0.0017,"dx":0.0017,"nx":28,"ny":28,"refTime":"2025-11-15T03:00:00:Z","depth":0,"parameterNumber":2,"parameterNumberName":"U-component_of_WINDS"},"data":[0,0,0,0,0,0,0,0,0,0,0,0,0,0,0,0,0,0,0,0,0,0,0,0,0,0,0,0,0,0,0,0,0,0,0,0,0,0,0,0,0,0,0,0,0,0,0,0,0,0,0,0,0,0,0,0,0,0,-1.0421,-1.0421,0,-1.0489,-1.049,-1.0491,-1.0459,-1.0457,-1.0456,-1.0454,-1.0526,-1.0529,-1.0532,0,0,0,0,0,0,0,0,0,0,0,0,0,-1.0263,-1.0266,-1.0421,-1.0421,-1.0422,-1.0489,-1.049,-1.0491,-1.0459,-1.0457,-1.0455,-1.0453,-1.0524,-1.0529,-1.0533,0,0,0,0,0,0,0,0,0,0,0,0,0,-1.0332,-1.0267,-1.042,-1.0414,-1.0415,-1.0489,-1.049,-1.0491,-1.046,-1.0457,-1.0455,-1.0452,-1.0523,-1.0528,-1.0533,-1.0618,0,0,-1.0549,-1.0552,0,0,0,0,0,0,0,0,-1.0328,-1.0338,-1.0414,-1.0415,-1.0415,-1.0463,-1.0461,-1.0534,-1.046,-1.0443,-1.0454,-1.0451,-1.0507,-1.0513,-1.0532,-1.0621,-1.0624,-1.055,-1.0553,-1.0555,-1.0557,0,0,0,0,0,0,0,-1.0323,-1.0335,-1.0448,-1.0416,-1.0416,-1.0409,-1.0416,-1.0474,-1.0489,-1.0444,-1.0442,-1.045,-1.0507,-1.0527,-1.0533,-1.0625,-1.055,-1.0554,-1.0558,-1.056,-1.0788,-1.0791,0,0,0,0,0,0,-1.0319,-1.0331,-1.0445,-1.045,-1.0364,-1.0414,-1.0421,-1.045,-1.0488,-1.0491,-1.0452,-1.0449,-1.0519,-1.0527,-1.0536,-1.0638,-1.0555,-1.056,-1.0563,-1.0785,-1.0788,-1.0792,0,0,0,0,0,0,-1.0315,-1.0329,-1.0443,-1.039,-1.0404,-1.0419,-1.0452,-1.0453,-1.0473,-1.0494,-1.0497,-1.0471,-1.0517,-1.0528,-1.0598,-1.064,-1.0563,-1.0567,-1.0782,-1.0786,-1.079,-1.0842,0,0,0,0,0,0,-1.0311,-1.0328,-1.036,-1.0391,-1.0407,-1.0503,-1.0454,-1.0456,-1.0482,-1.0478,-1.0512,-1.0515,-1.0516,-1.059,-1.0603,-1.0646,-1.0572,-1.0778,-1.0784,-1.0789,-1.0837,-1.0848,-1.0857,0,0,0,0,0,-1.0305,-1.0372,-1.0362,-1.0376,-1.0447,-1.0506,-1.0515,-1.0515,-1.0486,-1.0518,-1.0532,-1.0514,-1.0633,-1.0597,-1.0612,-1.0657,-1.0775,-1.0782,-1.0788,-1.0832,-1.0846,-1.0857,0,0,0,0,0,0,-1.0347,-1.0376,-1.0365,-1.0444,-1.0472,-1.05,-1.0541,-1.0529,-1.0567,-1.0561,-1.0559,-1.0567,-1.0639,-1.0655,-1.0615,-1.0741,-1.07,-1.0709,-1.0728,-1.0741,-1.0751,-1.0746,-1.0576,0,0,0,0,0,-1.0365,-1.041,-1.0433,-1.05,-1.0515,-1.0526,-1.0552,-1.0549,-1.0579,-1.0591,-1.0609,-1.064,-1.0684,-1.0713,-1.0755,-1.0838,-1.0846,-1.0876,-1.0886,-1.0895,-1.0904,-1.095,-1.0964,-1.0813,-1.0813,-1.0813,0,0,-1.0403,-1.0425,-1.0453,-1.0509,-1.0531,-1.0578,-1.0536,-1.0588,-1.0623,-1.0599,-1.0666,-1.068,-1.0714,-1.0791,-1.0826,-1.0806,-1.0947,-1.0903,-1.0909,-1.0914,-1.0958,-1.0972,-1.0985,-1.0817,-1.0817,-1.0816,0,0,-1.0497,-1.0517,-1.0576,-1.0599,-1.0632,-1.0639,-1.0653,-1.0683,-1.0692,-1.0758,-1.0741,-1.0783,-1.0859,-1.0884,-1.0907,-1.101,-1.0995,-1.1023,-1.1077,-1.1122,-1.1134,-1.1144,-1.1182,-1.1196,-1.1032,-1.1032,-1.1032,0,-1.054,-1.061,-1.0608,-1.0661,-1.0686,-1.0666,-1.0725,-1.0748,-1.0794,-1.0812,-1.0789,-1.0884,-1.0905,-1.0988,-1.1013,-1.1031,-1.1048,-1.102,-1.1132,-1.1143,-1.1153,-1.1189,-1.1203,-1.1035,-1.1035,-1.1034,-1.1034,0,-1.0663,-1.0712,-1.0755,-1.0799,-1.0829,-1.0886,-1.0892,-1.0923,-1.0917,-1.0926,-1.0995,-1.1019,-1.1066,-1.1085,-1.108,-1.1168,-1.1154,-1.1132,-1.1091,-1.117,-1.1204,-1.1218,-1.104,-1.1039,-1.1038,-1.1037,0,0,-1.0786,-1.0827,-1.0843,-1.0864,-1.0899,-1.0937,-1.0992,-1.1037,-1.1064,-1.1096,-1.1143,-1.1208,-1.1187,-1.1213,-1.1211,-1.125,-1.1331,-1.1223,-1.1223,-1.1243,-1.143,-1.1448,-1.1464,-1.1321,-1.1324,-1.1326,-1.1428,0,-1.0883,-1.0979,-1.0978,-1.1068,-1.1114,-1.1095,-1.1143,-1.117,-1.118,-1.122,-1.1231,-1.1278,-1.1246,-1.1262,-1.13,-1.1313,-1.1369,-1.1306,-1.1366,-1.1368,-1.1359,-1.1481,-1.15,-1.1595,-1.1441,-1.1443,-1.1444,0,-1.101,-1.1046,-1.114,-1.1169,-1.1188,-1.1231,-1.1273,-1.1311,-1.1342,-1.1347,-1.1375,-1.1367,-1.1423,-1.138,-1.1459,-1.1416,-1.144,-1.145,-1.1454,-1.1461,-1.1412,-1.1492,-1.1625,-1.164,-1.1465,-1.1463,-1.1462,0,-1.1091,-1.1163,-1.1229,-1.1247,-1.1282,-1.1313,-1.1329,-1.1357,-1.1384,-1.1421,-1.1439,-1.1481,-1.1505,-1.1538,-1.1541,-1.1509,-1.1621,-1.1577,-1.1627,-1.1627,-1.1653,-1.1651,-1.1792,-1.1666,-1.1666,-1.1666,-1.1666,0,-1.1201,-1.1259,-1.1266,-1.1307,-1.1372,-1.137,-1.1435,-1.1448,-1.1473,-1.1517,-1.1502,-1.1544,-1.1545,-1.1587,-1.159,-1.1655,-1.1666,-1.1672,-1.1672,-1.1674,-1.1673,-1.1691,-1.1684,-1.167,-1.1669,-1.1668,-1.1667,0,-1.1303,-1.131,-1.1381,-1.1408,-1.1416,-1.1463,-1.1487,-1.1526,-1.1534,-1.1589,-1.1602,-1.1615,-1.1664,-1.1671,-1.1728,-1.173,-1.1808,-1.1801,-1.1798,-1.1798,-1.1847,-1.1843,-1.2005,-1.2027,-1.1886,-1.1887,-1.1888,0,-1.1373,-1.1418,-1.145,-1.1478,-1.1496,-1.1541,-1.1568,-1.1568,-1.1598,-1.1636,-1.1671,-1.1718,-1.1756,-1.1835,-1.185,-1.1894,-1.1888,-1.1942,-1.1895,-1.1895,-1.189,-1.1888,-1.1893,-1.1952,-1.1953,-1.1954,-1.1955,0,-1.1497,-1.1498,-1.1539,-1.158,-1.1614,-1.1647,-1.1678,-1.1701,-1.1705,-1.1739,-1.1789,-1.1818,-1.1876,-1.1924,-1.1967,-1.1984,-1.1971,-1.197,-1.1984,-1.1987,-1.1984,-1.1987,-1.1824,-1.1967,-1.1965,-1.1965,-1.1964,-1.1964,-1.1586,-1.1625,-1.1654,-1.17,-1.1723,-1.1752,-1.179,-1.1803,-1.1844,-1.1891,-1.1889,-1.1944,-1.1973,-1.203,-1.205,-1.2093,-1.2076,-1.2096,-1.2101,-1.2106,-1.2112,-1.1976,-1.2101,-1.2101,-1.21,-1.21,-1.21,0,-1.1711,-1.1728,-1.177,-1.1813,-1.1849,-1.1833,-1.1866,-1.1898,-1.1946,-1.1974,-1.2012,-1.2069,-1.2115,-1.2134,-1.2179,-1.221,-1.2205,-1.2222,-1.222,-1.2224,-1.2124,-1.2108,-1.2225,-1.2225,-1.2225,-1.2225,-1.2225,-1.2225,-1.1779,-1.1845,-1.1849,-1.1926,-1.1943,-1.1997,-1.2017,-1.2044,-1.2067,-1.2132,-1.2169,-1.2181,-1.2206,-1.2252,-1.2294,-1.2298,-1.2316,-1.2336,-1.2337,-1.2244,-1.2231,-1.2219,-1.2204,-1.2339,-1.2339,-1.2434,-1.2435,-1.2435]},{"header":{"parameterUnit":"m.s-1","parameterCategory":1,"la1":30.2991,"la2":30.254,"lo1":-89.0895,"lo2":-89.0444,"dy":0.0017,"dx":0.0017,"nx":28,"ny":28,"refTime":"2025-11-15T03:00:00:Z","depth":0,"parameterNumber":3,"parameterNumberName":"V-component_of_WINDS"},"data":[0,0,0,0,0,0,0,0,0,0,0,0,0,0,0,0,0,0,0,0,0,0,0,0,0,0,0,0,0,0,0,0,0,0,0,0,0,0,0,0,0,0,0,0,0,0,0,0,0,0,0,0,0,0,0,0,0,0,-0.2022,-0.2022,0,-0.2047,-0.2047,-0.2048,-0.2042,-0.2042,-0.2041,-0.2041,-0.2066,-0.2067,-0.2068,0,0,0,0,0,0,0,0,0,0,0,0,0,-0.1969,-0.197,-0.2022,-0.2023,-0.2023,-0.2047,-0.2047,-0.2048,-0.2042,-0.2042,-0.2041,-0.2041,-0.2065,-0.2067,-0.2068,0,0,0,0,0,0,0,0,0,0,0,0,0,-0.1993,-0.197,-0.2022,-0.2023,-0.2023,-0.2047,-0.2047,-0.2048,-0.2042,-0.2042,-0.2041,-0.204,-0.2065,-0.2067,-0.2068,-0.2092,0,0,-0.2073,-0.2074,0,0,0,0,0,0,0,0,-0.1991,-0.1995,-0.2023,-0.2023,-0.2023,-0.2041,-0.2038,-0.2063,-0.2043,-0.2035,-0.2041,-0.204,-0.2058,-0.206,-0.2066,-0.2094,-0.2095,-0.2073,-0.2074,-0.2075,-0.2076,0,0,0,0,0,0,0,-0.199,-0.1994,-0.2032,-0.2023,-0.2023,-0.2022,-0.2025,-0.2043,-0.205,-0.2036,-0.2035,-0.2038,-0.2058,-0.2065,-0.2067,-0.2095,-0.2073,-0.2075,-0.2076,-0.2076,-0.2143,-0.2144,0,0,0,0,0,0,-0.1988,-0.1992,-0.2031,-0.2033,-0.2005,-0.2023,-0.2026,-0.2036,-0.205,-0.2051,-0.2039,-0.2038,-0.2062,-0.2065,-0.2068,-0.2097,-0.2075,-0.2077,-0.2078,-0.2142,-0.2143,-0.2144,0,0,0,0,0,0,-0.1987,-0.1991,-0.203,-0.2012,-0.2017,-0.2025,-0.2036,-0.2037,-0.2044,-0.2052,-0.2054,-0.2045,-0.2062,-0.2065,-0.2086,-0.2098,-0.2077,-0.2079,-0.2141,-0.2143,-0.2144,-0.2156,0,0,0,0,0,0,-0.1985,-0.1991,-0.2001,-0.2013,-0.2018,-0.2049,-0.2037,-0.2038,-0.2047,-0.2046,-0.2058,-0.2059,-0.2062,-0.2084,-0.2088,-0.21,-0.208,-0.214,-0.2142,-0.2143,-0.2155,-0.2158,-0.216,0,0,0,0,0,-0.1983,-0.2003,-0.2001,-0.2006,-0.203,-0.2049,-0.2053,-0.2055,-0.2047,-0.2057,-0.2063,-0.2059,-0.2096,-0.2086,-0.2091,-0.2103,-0.214,-0.2142,-0.2143,-0.2154,-0.2157,-0.216,0,0,0,0,0,0,-0.1992,-0.2005,-0.2003,-0.2027,-0.2037,-0.2048,-0.2061,-0.2059,-0.2071,-0.207,-0.2072,-0.2075,-0.2096,-0.2101,-0.209,-0.2127,-0.2117,-0.2119,-0.2123,-0.2126,-0.2129,-0.2127,-0.2081,0,0,0,0,0,-0.1996,-0.2011,-0.2021,-0.2042,-0.2047,-0.2053,-0.2061,-0.2062,-0.2073,-0.2077,-0.2084,-0.2095,-0.2108,-0.2118,-0.2131,-0.2155,-0.2158,-0.2166,-0.2169,-0.2171,-0.2173,-0.2187,-0.219,-0.215,-0.215,-0.215,0,0,-0.2006,-0.2015,-0.2024,-0.2043,-0.2052,-0.2067,-0.2057,-0.2073,-0.2084,-0.2079,-0.21,-0.2105,-0.2117,-0.214,-0.215,-0.2145,-0.2185,-0.2173,-0.2175,-0.2176,-0.2189,-0.2193,-0.2196,-0.2151,-0.2151,-0.2151,0,0,-0.2032,-0.204,-0.2058,-0.2066,-0.2078,-0.2082,-0.2086,-0.2098,-0.2102,-0.2122,-0.2119,-0.2132,-0.2156,-0.2164,-0.2172,-0.22,-0.2197,-0.2204,-0.2218,-0.2231,-0.2235,-0.2237,-0.2248,-0.2251,-0.2207,-0.2207,-0.2207,0,-0.2042,-0.2065,-0.2067,-0.2084,-0.2092,-0.2089,-0.2107,-0.2115,-0.2131,-0.2137,-0.2131,-0.2161,-0.2168,-0.2193,-0.22,-0.2206,-0.2211,-0.2203,-0.2234,-0.2237,-0.224,-0.2249,-0.2253,-0.2208,-0.2208,-0.2207,-0.2207,0,-0.2077,-0.2093,-0.2106,-0.2122,-0.2132,-0.2149,-0.2153,-0.2163,-0.2163,-0.2167,-0.2188,-0.2197,-0.2212,-0.2218,-0.2218,-0.2242,-0.2239,-0.2233,-0.2223,-0.2244,-0.2254,-0.2257,-0.2209,-0.2208,-0.2208,-0.2208,0,0,-0.211,-0.2126,-0.2131,-0.2138,-0.2151,-0.2163,-0.218,-0.2195,-0.2204,-0.2214,-0.2229,-0.2249,-0.2244,-0.2252,-0.2253,-0.2264,-0.2286,-0.2257,-0.2258,-0.2263,-0.2314,-0.2319,-0.2323,-0.2284,-0.2285,-0.2286,-0.2313,0,-0.2137,-0.2167,-0.2169,-0.2196,-0.2211,-0.2207,-0.2222,-0.2232,-0.2236,-0.2249,-0.2253,-0.2268,-0.226,-0.2265,-0.2276,-0.2281,-0.2297,-0.2279,-0.2297,-0.2298,-0.2295,-0.2328,-0.2333,-0.2358,-0.2317,-0.2318,-0.2318,0,-0.2172,-0.2185,-0.2213,-0.2225,-0.2231,-0.2244,-0.2258,-0.227,-0.2281,-0.2283,-0.2292,-0.2291,-0.2308,-0.2297,-0.232,-0.2308,-0.2316,-0.2319,-0.232,-0.2323,-0.231,-0.2331,-0.2367,-0.2371,-0.2324,-0.2323,-0.2323,0,-0.2193,-0.2217,-0.2237,-0.2243,-0.2257,-0.2266,-0.2272,-0.2282,-0.2291,-0.2303,-0.2309,-0.2322,-0.233,-0.234,-0.2343,-0.2334,-0.2366,-0.2355,-0.2368,-0.2368,-0.2376,-0.2375,-0.2413,-0.238,-0.238,-0.238,-0.2379,0,-0.2224,-0.2241,-0.2247,-0.2259,-0.2279,-0.2281,-0.23,-0.2306,-0.2315,-0.2328,-0.2326,-0.2338,-0.2341,-0.2353,-0.2356,-0.2375,-0.2378,-0.238,-0.2381,-0.2381,-0.2381,-0.2386,-0.2384,-0.2381,-0.238,-0.238,-0.238,0,-0.2251,-0.2255,-0.2277,-0.2288,-0.2291,-0.2305,-0.2314,-0.2326,-0.233,-0.2347,-0.2351,-0.2357,-0.2372,-0.2375,-0.2393,-0.2395,-0.2417,-0.2416,-0.2414,-0.2414,-0.2428,-0.2426,-0.2471,-0.2477,-0.2439,-0.2439,-0.244,0,-0.227,-0.2284,-0.2296,-0.2305,-0.2311,-0.2326,-0.2335,-0.2337,-0.2346,-0.2359,-0.237,-0.2384,-0.2396,-0.242,-0.2426,-0.244,-0.2439,-0.2453,-0.2441,-0.244,-0.2439,-0.2439,-0.244,-0.2456,-0.2456,-0.2457,-0.2457,0,-0.2304,-0.2305,-0.2319,-0.2333,-0.2343,-0.2354,-0.2365,-0.2372,-0.2376,-0.2386,-0.2402,-0.2411,-0.2429,-0.2444,-0.2458,-0.2463,-0.2461,-0.2461,-0.2465,-0.2465,-0.2464,-0.2465,-0.2421,-0.246,-0.2459,-0.2459,-0.2459,-0.2459,-0.2328,-0.234,-0.2351,-0.2365,-0.2373,-0.2383,-0.2395,-0.24,-0.2413,-0.2429,-0.2429,-0.2446,-0.2456,-0.2474,-0.248,-0.2493,-0.2489,-0.2494,-0.2496,-0.2497,-0.2499,-0.2461,-0.2496,-0.2495,-0.2495,-0.2495,-0.2495,0,-0.2362,-0.2369,-0.2382,-0.2397,-0.2409,-0.2405,-0.2417,-0.2426,-0.2441,-0.2451,-0.2463,-0.248,-0.2495,-0.2501,-0.2515,-0.2524,-0.2523,-0.2528,-0.2528,-0.2529,-0.2502,-0.2497,-0.2528,-0.2528,-0.2528,-0.2528,-0.2528,-0.2528,-0.2381,-0.2401,-0.2404,-0.2428,-0.2434,-0.2451,-0.2458,-0.2467,-0.2475,-0.2495,-0.2507,-0.2511,-0.2519,-0.2534,-0.2546,-0.2548,-0.2553,-0.2558,-0.2559,-0.2534,-0.2531,-0.2528,-0.2523,-0.256,-0.256,-0.2586,-0.2586,-0.2586]}]]